IR2UDS Weather Reports


time (UTC)temp
C
wind
direction
speed
KPH
gust
KPH
rain 1hr
cm
rain 24hr
cm
rain mn
cm
humidity
%
barometer
mb
20260507135333 7 350 0.0 4.8 0.03 0.38 0.08 87 1014.2
20260507134324 7 244 0.0 8.0 0.03 0.38 0.08 87 1014.2
20260507132315 7 11 0.0 6.4 0.00 0.36 0.05 87 1014.3
20260507125323 7 290 3.2 6.4 0.00 0.46 0.05 86 1014.3
20260507120318 7 35 1.6 6.4 0.00 0.53 0.05 84 1014.4
20260507115315 7 291 9.7 12.9 0.00 0.53 0.05 84 1014.3
20260507114328 7 5 0.0 6.4 0.00 0.53 0.05 84 1014.4
20260507113321 7 169 3.2 12.9 0.00 0.53 0.05 81 1014.4
20260507112333 7 188 8.0 16.1 0.00 0.53 0.05 79 1014.5
20260507111326 7 236 4.8 16.1 0.00 0.53 0.05 83 1014.4
20260507105320 7 245 4.8 8.0 0.00 0.61 0.05 83 1014.6
20260507104313 7 38 0.0 6.4 0.00 0.61 0.05 83 1014.5
20260507102322 7 32 0.0 6.4 0.00 0.61 0.05 82 1014.6
20260507100319 8 31 4.8 14.5 0.00 0.66 0.05 81 1014.6
20260507095314 8 217 8.0 11.3 0.00 0.66 0.05 80 1014.6
20260507094326 8 282 1.6 14.5 0.00 0.66 0.05 80 1014.5
20260507090330 8 191 1.6 8.0 0.00 0.74 0.05 82 1014.4
20260507085324 8 15 3.2 8.0 0.00 0.74 0.05 82 1014.2
20260507083316 8 355 1.6 4.8 0.00 0.74 0.05 79 1014.2
20260507082315 8 44 3.2 8.0 0.00 0.74 0.05 81 1014.0
20260507081331 7 228 1.6 19.3 0.00 0.74 0.05 81 1014.1
20260507075317 6 180 9.7 17.7 0.00 0.81 0.05 83 1013.8
20260507074332 6 192 12.9 16.1 0.00 0.81 0.05 84 1013.8
20260507072326 6 201 3.2 16.1 0.00 0.81 0.05 85 1013.6
20260507065328 6 154 9.7 16.1 0.00 0.89 0.05 86 1013.4
20260507063319 5 189 6.4 16.1 0.00 0.89 0.05 85 1013.2
20260507061332 5 177 6.4 12.9 0.00 0.89 0.05 85 1013.0
20260507060327 5 184 6.4 17.7 0.00 0.97 0.05 85 1013.1
20260507055318 5 184 6.4 14.5 0.00 0.97 0.05 86 1012.9
20260507053313 4 200 9.7 14.5 0.00 0.97 0.05 86 1012.8
20260507052326 5 197 11.3 16.1 0.00 0.97 0.05 86 1012.6
20260507051319 5 181 14.5 22.5 0.00 0.97 0.05 84 1012.5
20260507043321 4 198 16.1 22.5 0.00 1.04 0.05 86 1011.9
20260507042316 4 191 17.7 24.1 0.00 1.04 0.05 87 1011.8
20260507041329 4 202 19.3 22.5 0.00 1.04 0.05 87 1011.8
20260507035320 3 205 19.3 24.1 0.00 1.14 0.05 87 1011.7
20260507034318 3 207 17.7 24.1 0.00 1.14 0.05 87 1011.6
20260507033333 3 197 14.5 22.5 0.00 1.14 0.05 87 1011.7
20260507032325 4 217 17.7 27.4 0.00 1.14 0.05 86 1011.6
20260507031319 4 211 19.3 25.7 0.00 1.14 0.05 86 1011.5
20260507030314 4 211 19.3 25.7 0.03 1.22 0.05 85 1011.6
20260507023324 4 197 17.7 33.8 0.03 1.22 0.05 86 1011.4
20260507022316 4 193 22.5 30.6 0.03 1.22 0.05 86 1011.4
20260507015326 4 209 20.9 32.2 0.00 1.24 0.03 87 1011.2
20260507013314 4 190 20.9 30.6 0.00 1.24 0.03 86 1011.3
20260507010317 4 207 19.3 29.0 0.00 1.24 0.03 86 1011.2
20260507005315 4 209 20.9 24.1 0.00 1.24 0.03 86 1011.3
20260507004327 4 238 17.7 22.5 0.00 1.24 0.03 86 1011.5
20260507002318 5 230 16.1 22.5 0.03 1.24 0.03 85 1011.4
20260507001332 5 230 17.7 25.7 0.03 1.24 0.03 85 1011.3
20260506235326 5 217 22.5 32.2 0.03 1.24 0.03 85 1011.0
20260506225319 5 188 24.1 46.7 0.00 1.22 0.00 85 1010.6
20260506224314 5 215 33.8 43.5 0.03 1.22 0.00 84 1010.3
20260506221322 5 201 32.2 49.9 0.03 1.22 0.00 84 1010.3
20260506220319 5 192 35.4 53.1 0.03 1.22 0.00 83 1010.3
20260506215332 5 188 37.0 49.9 0.03 1.22 1.22 82 1010.4
20260506214328 5 185 37.0 56.3 0.00 1.19 1.19 80 1010.4
20260506205323 5 198 40.2 56.3 0.03 1.19 1.19 76 1010.2
20260506202318 5 170 29.0 53.1 0.03 1.19 1.19 79 1010.3
20260506201327 5 173 29.0 40.2 0.03 1.17 1.17 80 1010.4
20260506200328 5 178 11.3 30.6 0.03 1.19 1.17 81 1010.7
20260506195328 5 151 12.9 22.5 0.03 1.19 1.17 81 1010.5
20260506193321 5 93 8.0 16.1 0.03 1.19 1.17 81 1010.4
20260506191314 5 157 17.7 38.6 0.03 1.17 1.14 82 1009.8
20260506190327 5 200 33.8 45.1 0.03 1.17 1.14 82 1009.2
20260506184322 5 205 24.1 37.0 0.03 1.17 1.14 84 1009.3
20260506183315 5 147 22.5 35.4 0.03 1.17 1.14 83 1009.4
20260506181326 5 209 32.2 45.1 0.03 1.14 1.12 81 1008.6
20260506180323 5 196 33.8 56.3 0.03 1.14 1.12 80 1008.3
20260506175318 5 195 46.7 61.2 0.03 1.14 1.12 80 1007.9
20260506174313 6 214 41.8 56.3 0.03 1.14 1.12 79 1007.9
20260506173327 6 212 37.0 57.9 0.05 1.14 1.12 80 1007.8
20260506172320 6 196 38.6 64.4 0.03 1.12 1.09 79 1007.7
20260506171319 6 197 41.8 57.9 0.03 1.12 1.09 79 1007.4
20260506164324 6 207 30.6 53.1 0.05 1.12 1.09 80 1007.6
20260506163318 7 213 35.4 57.9 0.03 1.09 1.07 78 1007.5
20260506162317 7 189 37.0 54.7 0.03 1.09 1.07 79 1007.5
20260506161331 7 199 30.6 49.9 0.05 1.09 1.07 78 1007.6
20260506160325 7 169 32.2 53.1 0.05 1.09 1.07 75 1007.6
20260506155317 7 235 38.6 51.5 0.03 1.07 1.04 75 1007.4
20260506154331 8 198 29.0 46.7 0.05 1.07 1.04 73 1007.6
20260506153328 8 198 29.0 46.7 0.05 1.07 1.04 72 1007.8
20260506152320 8 220 29.0 46.7 0.05 1.07 1.04 73 1007.9
20260506151313 8 196 38.6 56.3 0.05 1.04 1.02 65 1007.5
20260506141315 8 224 20.9 35.4 0.05 1.02 0.97 74 1008.3